ROMMA est une association bénévole à but non lucratif. Votre soutien est indispensable : ADHERER à ROMMA ou FAIRE un DON

Le Versoud - (38, Isère)

Vallée du Grésivaudan (220 m)   Longitude: 05° 51' 44" E   Latitude: 45° 13' 06" N Station partenaire n°6
 

Détail journalier du     <<     >>

Température Precipitation Humidité Pression Vent Dir Rafale Dir. rafale Ensol.
Heure (°C) (mm) (%) (hPa) (km/h) (km/h) (min)
01:00 5.3090102000---0
02:00 4.80.8911020015SSO0
03:00 4.20.292101900---0
04:00 4.1093101900---0
05:00 4.0093101900---0
06:00 4.1092102000---0
07:00 4.10.491102000---0
08:00 4.1091102100---0
09:00 4.8087102100---0
10:00 6.3082102202NO10
11:00 7.40.26910222N16NE20
12:00 9.604910225ENE24E60
13:00 9.704910224N23N15
14:00 10.404510214NE21NE40
15:00 10.204610214NE29NE20
16:00 10.204510214NE23N5
17:00 9.804710213N24NE0
18:00 9.20511022013NNO5
19:00 7.9056102200---5
20:00 6.2067102200---0
21:00 5.4069102300---0
22:00 4.7076102300---0
23:00 3.9079102300---0
minuit 3.9080102200---0

Graphique du 18-03-2019

 

Serveur OMMA